NOAA 16 DEB, 42358

Orbit data source: Space-Track

NOAA 16 DEB, 42358 is space debris in SSO originally from a launch on Thu, 21 Sep 2000 UTC launched from the Air Force Western Test Range (AFWTR). Debris objects in space refer to the collection of defunct objects orbiting the Earth. Examples of debris include non-operational satellites, rocket bodies, and fragments generated from explosions, collisions, or faulty payload assembly.

Loading next visibility...
Identifier
42358, 2000-055RA
Orbit
SSO
Country
Flag of USUS
Related business
Manufacturer
Unknown
Mission
Spacecraft
Bus & Motor
Unknown
Mass
Unknown
Launch date (UTC)
2000-09-21 (26 years ago)
Launch vehicle
Unknown
Launch site
Air Force Western Test Range (AFWTR)
Object type
Payload
Rocket body
Debris
Shape & HBR
Unknown shape, 0.1 m
Radar Cross Section
Medium (>0.1 m² and <1 m²)

Expand to show TLE details & history
Last TLE update: 2 days ago

TLE from 2 days ago
0 NOAA 16 DEB
1 42358U 00055RA  26253.67693879  .00014135  00000-0  24225-2 0  9996
2 42358  98.8483  43.7003 0022838  54.6029 305.7302 14.68714967513619
Epoch: 2026-09-10T16:14Z
TLE epoch observation values (Epoch: 2026-09-10T16:14:47.511Z)
Latitude
-0.0001°
Longitude
170.29113°
Altitude
658.779 km
Speed
7.533 km/s
True Right ascension
02h 54m 48s
True Declination
0° 00' 00"
Sunlit
Object was in full shadow at epoch
Visualization orbit readout
Latitude
Unknown
Longitude
Unknown
Altitude
Unknown
Speed
Unknown
Apparent Right ascension
Unknown
Apparent Declination
Unknown
Sunlit
N/A
Visualization observer readout
Local Sidereal Time
09:56:49
Azimuth
Unknown
Elevation
Unknown
Doppler factor
Unknown
Orbital elements
Apogee altitude
678.353 km
Perigee altitude
646.195 km
Semi-major axis
7,040.411 km
Eccentricity
0.00228
Inclination
98.8483°
RAAN
43.7003°
Arg. of periapsis
54.6029°
True anomaly
305.5174°
Mean anomaly
305.7302°
Eccentric anomaly
305.62384°
Mean motion
3.67406 °/min
Orbital period
97.98 mins
BSTAR
0.0024225
Loading maneuver chart data...
Computing Atmospheric mass density...
Loading historical data...
Loading historical data...
Loading historical data...
Loading historical data...
Loading historical data...
Loading historical data...
Loading historical data...

Documentation

Showing up to 5 results
|